Wheeling, WV

3:35 PM EDT on July 26, 2017 (GMT -0400)
Wheeling-Ohio County

Weather History for KHLG - February, 2013

Change the Weather History Date:

Tuesday, February 19, 2013

  Actual Average Record
Temperature  
Mean Temperature 35 °F 33 °F  
Max Temperature 47 °F 41 °F 63 °F (1951)
Min Temperature 22 °F 25 °F -1 °F (2015)
Degree Days  
Heating Degree Days 30 32  
Month to date heating degree days 678 644  
Since 1 July heating degree days 3709 3886  
Cooling Degree Days 0    
Month to date cooling degree days 0  
Year to date cooling degree days 0  
Moisture  
Dew Point 26 °F    
Average Humidity 64    
Maximum Humidity 85    
Minimum Humidity 42    
Precipitation  
Precipitation 0.20 in 0.07 in 0.22 in (1991)
Month to date precipitation 0.84 1.43  
Sea Level Pressure  
Sea Level Pressure 29.81 in    
Wind  
Wind Speed 19 mph (WSW)    
Max Wind Speed 40 mph    
Max Gust Speed 51 mph    
Visibility 7 miles    
Events Rain , Snow    
T = Trace of Precipitation, MM = Missing Value Source: NWS Daily Summary

Daily Weather History Graph

Daily Weather History Graph

Search for Another Location

Airport or City:

Trip Planner

Search our weather history database for the weather conditions in past years. The results will help you decide how hot, cold, wet, or windy it might be!

Date:

Astronomy

Feb. 19, 2013 Rise Set
Actual Time 7:10 AM EST 6:03 PM EST
Civil Twilight 6:42 AM EST 6:30 PM EST
Nautical Twilight 6:10 AM EST 7:02 PM EST
Astronomical Twilight 5:39 AM EST 7:34 PM EST
Moon 12:33 PM EST (2/19) 2:40 AM EST (2/19)
Length of Visible Light 11h 48m
Length of Day
10h 53m
Waxing Gibbous, 67% of the Moon is Illuminated
Feb 19
Waxing Gibbous
Feb 25
Full
Mar 4
Last Quarter
Mar 11
New
Mar 19
First Quarter

Hourly Weather History & Observations

Time (EST) Temp. Windchill Dew Point Humidity Pressure Visibility Wind Dir Wind Speed Gust Speed Precip Events Conditions
12:53 AM 45.0 °F 37.6 °F 26.1 °F 48% 29.86 in 10.0 mi South 17.3 mph 24.2 mph N/A   Clear
1:53 AM 46.0 °F 39.0 °F 24.1 °F 42% 29.84 in 10.0 mi South 17.3 mph 26.5 mph N/A   Mostly Cloudy
2:53 AM 46.9 °F - 27.0 °F 46% 29.84 in 9.0 mi SW 25.3 mph 46.0 mph 0.00 in   Overcast
3:01 AM 42.8 °F 32.9 °F 33.8 °F 70% 29.81 in 4.0 mi SW 26.5 mph 50.6 mph 0.01 in Rain Rain
3:37 AM 42.8 °F 35.1 °F 33.8 °F 70% 29.78 in 10.0 mi South 16.1 mph 28.8 mph 0.03 in Rain Light Rain
3:53 AM 42.1 °F 31.9 °F 34.0 °F 73% 29.79 in 6.0 mi South 26.5 mph 39.1 mph 0.05 in Rain Light Rain
4:34 AM 39.2 °F 31.6 °F 35.6 °F 87% 29.75 in 10.0 mi South 12.7 mph - 0.03 in   Overcast
4:53 AM 39.9 °F 30.5 °F 35.1 °F 83% 29.77 in 10.0 mi South 19.6 mph 29.9 mph 0.03 in Rain Light Rain
5:53 AM 39.9 °F 30.5 °F 34.0 °F 79% 29.74 in 10.0 mi South 19.6 mph 25.3 mph 0.02 in Rain Light Rain
6:53 AM 41.0 °F 32.2 °F 35.1 °F 79% 29.72 in 9.0 mi South 18.4 mph 25.3 mph 0.01 in Rain Light Rain
7:08 AM 39.2 °F 30.2 °F 35.6 °F 87% 29.69 in 9.0 mi South 17.3 mph 25.3 mph 0.02 in Rain Light Rain
7:53 AM 39.9 °F 30.0 °F 36.0 °F 86% 29.72 in 8.0 mi South 21.9 mph 27.6 mph 0.04 in Rain Light Rain
8:40 AM 39.2 °F 30.2 °F 37.4 °F 93% 29.68 in 9.0 mi South 17.3 mph - 0.00 in   Overcast
8:53 AM 39.9 °F 31.4 °F 37.0 °F 89% 29.71 in 8.0 mi South 16.1 mph - 0.00 in Rain Light Rain
9:53 AM 41.0 °F 31.9 °F 37.0 °F 86% 29.69 in 10.0 mi SSW 19.6 mph 26.5 mph 0.02 in   Overcast
10:42 AM 37.4 °F 29.3 °F 35.6 °F 93% 29.69 in 9.0 mi West 12.7 mph 19.6 mph 0.01 in Rain Light Rain
10:53 AM 37.9 °F 29.2 °F 35.1 °F 89% 29.73 in 9.0 mi West 15.0 mph 25.3 mph 0.02 in Rain Light Rain
11:24 AM 35.6 °F 23.0 °F 32.0 °F 87% 29.71 in 5.0 mi WSW 27.6 mph 38.0 mph 0.00 in Snow Light Snow
11:32 AM 33.8 °F 20.8 °F 30.2 °F 87% 29.72 in 2.0 mi WSW 26.5 mph 38.0 mph 0.00 in Snow Light Snow
11:35 AM 33.8 °F 22.5 °F 30.2 °F 87% 29.72 in 1.2 mi West 19.6 mph 34.5 mph 0.00 in Snow Light Snow
11:43 AM 33.8 °F 22.2 °F 30.2 °F 87% 29.72 in 1.0 mi West 20.7 mph 32.2 mph 0.01 in Snow Light Snow
11:48 AM 33.8 °F 21.9 °F 28.4 °F 81% 29.73 in 6.0 mi WSW 21.9 mph 38.0 mph 0.01 in   Haze
2:53 PM 33.1 °F 21.5 °F 25.0 °F 72% 29.79 in 8.0 mi WSW 19.6 mph 34.5 mph N/A   Overcast
3:43 PM 30.2 °F 18.1 °F 24.8 °F 80% 29.78 in 9.0 mi West 18.4 mph 27.6 mph 0.00 in   Overcast
3:53 PM 30.9 °F 18.7 °F 23.0 °F 72% 29.82 in 4.0 mi West 19.6 mph 31.1 mph 0.00 in Snow Light Snow
4:09 PM 30.2 °F 17.8 °F 23.0 °F 75% 29.79 in 7.0 mi WSW 19.6 mph 29.9 mph 0.00 in Snow Light Snow
4:36 PM 30.2 °F 17.1 °F 23.0 °F 75% 29.80 in 2.5 mi WSW 21.9 mph 29.9 mph 0.00 in Snow Light Snow
4:42 PM 30.2 °F 17.4 °F 24.8 °F 80% 29.81 in 0.8 mi West 20.7 mph 31.1 mph 0.00 in Snow Light Snow
4:53 PM 28.9 °F 15.8 °F 25.0 °F 85% 29.85 in 1.0 mi West 20.7 mph 27.6 mph 0.00 in Snow Light Snow
5:16 PM 28.4 °F 16.2 °F 21.2 °F 74% 29.83 in 3.0 mi West 17.3 mph 33.4 mph 0.00 in Snow Light Snow
5:30 PM 28.4 °F 12.5 °F 19.4 °F 69% 29.84 in 9.0 mi West 31.1 mph 40.3 mph 0.00 in   Overcast
5:53 PM 28.9 °F 17.7 °F 17.1 °F 61% 29.89 in 10.0 mi West 15.0 mph 33.4 mph 0.00 in   Overcast
7:34 PM 26.6 °F 11.7 °F 15.8 °F 64% 29.90 in 6.0 mi West 24.2 mph 43.7 mph 0.00 in Snow Light Snow
7:41 PM 26.6 °F 13.4 °F 15.8 °F 64% 29.90 in 9.0 mi West 18.4 mph 33.4 mph 0.00 in   Overcast
7:53 PM 26.1 °F 12.7 °F 15.1 °F 63% 29.95 in 10.0 mi West 18.4 mph 35.7 mph 0.00 in   Overcast
8:53 PM 26.1 °F 15.6 °F 12.9 °F 58% 29.96 in 10.0 mi West 11.5 mph 25.3 mph N/A   Overcast
9:39 PM 24.8 °F 9.6 °F 17.6 °F 74% 29.92 in 3.0 mi West 23.0 mph 32.2 mph 0.00 in Snow Light Snow
9:42 PM 24.8 °F 9.6 °F 17.6 °F 74% 29.92 in 1.8 mi West 23.0 mph 32.2 mph 0.00 in Snow Light Snow
9:49 PM 24.8 °F 10.3 °F 17.6 °F 74% 29.93 in 2.0 mi West 20.7 mph 32.2 mph 0.00 in Snow Light Snow
9:53 PM 25.0 °F 9.9 °F 15.1 °F 66% 29.97 in 7.0 mi West 23.0 mph 31.1 mph 0.00 in Snow Light Snow
10:53 PM 24.1 °F 12.0 °F 14.0 °F 65% 29.98 in 10.0 mi West 13.8 mph 21.9 mph N/A   Overcast
11:53 PM 21.9 °F 7.3 °F 14.0 °F 72% 30.00 in 6.0 mi West 18.4 mph 32.2 mph 0.00 in Snow Light Snow